Home   Weather   Rutland   Past weeks
Flag for USA

Past Weather in Rutland, Vermont, USA — Yesterday and Last 2 Weeks

Now
31 °F

Partly cloudy.


Feels Like: 25 °F
Forecast: 31 / 13 °F
Wind: 6 mph from Southwest

Location: Rutland State

Current Time: Feb 17, 2020 at 4:28:07 am

Latest Report: Feb 17, 2020 at 3:56 am


Visibility: 10 mi

Pressure: 30.07 "Hg

Humidity: 73%

Dew Point: 23 °F

Location of RutlandLocation

Past Weather in Rutland — Graph

°F

Rutland Temperature Yesterday

Maximum temperature yesterday: 36 °F (at 10:56 pm)
Minimum temperature yesterday: 19 °F (at 12:56 am)
Average temperature yesterday: 31 °F

High & Low Weather Summary for the Past Weeks

 TemperatureHumidityPressure
High42 °F (Feb 4, 11:56 am)100% (Feb 2, 6:24 am)30.64 "Hg (Feb 2, 6:24 am)
Low-9 °F (Feb 15, 2:56 am)34% (Feb 15, 2:56 pm)28.80 "Hg (Feb 7, 2:06 pm)
Average27 °F84%29.88 "Hg
* Reported Feb 2 2:22 am — Feb 17 2:56 am, Rutland. Weather by CustomWeather, © 2020

Note: Actual official high and low records may vary slightly from our data, if they occured in-between our weather recording intervals... More about our weather records

Rutland Weather History for the Previous 24 Hours

Scroll right to see more
 ConditionsComfort  
Time TempWeatherWind HumidityBarometerVisibility
2:56 am
Mon, Feb 17
32 °FClear.7 mph69%30.06 "Hg10 mi
1:56 am33 °FPassing clouds.6 mph70%30.06 "Hg10 mi
12:56 am34 °FPassing clouds.8 mph67%30.05 "Hg10 mi
11:56 pm
Sun, Feb 16
35 °FOvercast.7 mph67%30.04 "Hg10 mi
10:56 pm36 °FMostly cloudy.No wind62%30.03 "Hg10 mi
9:56 pm35 °FMostly cloudy.5 mph61%30.03 "Hg10 mi
8:56 pm35 °FOvercast.8 mph64%30.02 "Hg10 mi
7:56 pm35 °FOvercast.5 mph64%30.03 "Hg10 mi
6:56 pm35 °FOvercast.7 mph64%30.02 "Hg10 mi
5:56 pm34 °FOvercast.7 mph67%30.03 "Hg10 mi
4:56 pm34 °FOvercast.3 mph64%30.01 "Hg10 mi
3:56 pm34 °FOvercast.5 mph64%30.02 "Hg10 mi
2:56 pm35 °FOvercast.7 mph59%30.02 "Hg10 mi
1:56 pm35 °FOvercast.6 mph56%30.02 "Hg10 mi
12:56 pm33 °FOvercast.9 mph56%30.03 "Hg10 mi
11:56 am33 °FOvercast.8 mph56%30.05 "Hg10 mi
10:56 am33 °FOvercast.9 mph54%30.07 "Hg10 mi
10:39 am32 °FOvercast.6 mph55%30.06 "Hg10 mi
10:09 am32 °FMostly cloudy.9 mph55%30.06 "Hg10 mi
8:56 am32 °FOvercast.5 mph61%30.09 "Hg10 mi
7:56 am29 °FOvercast.7 mph69%30.10 "Hg10 mi
6:56 am28 °FMostly cloudy.No wind75%30.10 "Hg10 mi
5:56 am27 °FOvercast.3 mph78%30.10 "Hg10 mi
4:56 am26 °FOvercast.6 mph81%30.12 "Hg9 mi
Weather by CustomWeather, © 2020

See weather overview

Advertising